Time,TemperatureF,DewpointF,PressureIn,WindDirection,WindDirectionDegrees,WindSpeedMPH,WindSpeedGustMPH,Humidity,HourlyPrecipIn,Conditions,Clouds,dailyrainin,SoftwareType,DateUTC
2013-07-01 00:04:00,77.5,57.4,29.96,WSW,248,2.0,7.0,50,0.00,,,0.00,meteohub,2013-07-01 07:04:00,
2013-07-01 00:10:00,77.4,57.2,29.96,North,0,2.0,6.0,50,0.00,,,0.00,meteohub,2013-07-01 07:10:00,
2013-07-01 00:17:00,77.2,57.0,29.95,South,180,2.0,4.0,50,0.00,,,0.00,meteohub,2013-07-01 07:17:00,
2013-07-01 00:22:00,77.0,57.0,29.96,North,0,2.0,4.0,50,0.00,,,0.00,meteohub,2013-07-01 07:22:00,
2013-07-01 00:27:00,76.8,57.4,29.96,North,0,2.0,4.0,51,0.00,,,0.00,meteohub,2013-07-01 07:27:00,
2013-07-01 00:32:00,76.5,57.0,29.96,NE,45,1.0,4.0,51,0.00,,,0.00,meteohub,2013-07-01 07:32:00,
2013-07-01 00:33:00,76.5,57.0,29.96,NW,315,2.0,4.0,51,0.00,,,0.00,meteohub,2013-07-01 07:33:00,
2013-07-01 00:39:00,76.5,57.0,29.96,NW,315,2.0,3.0,51,0.00,,,0.00,meteohub,2013-07-01 07:39:00,
2013-07-01 00:45:00,76.3,56.8,29.96,NW,315,4.0,4.0,51,0.00,,,0.00,meteohub,2013-07-01 07:45:00,
2013-07-01 00:51:00,76.3,56.8,29.96,NW,315,4.0,5.0,51,0.00,,,0.00,meteohub,2013-07-01 07:51:00,
2013-07-01 00:57:00,76.5,57.0,29.96,South,180,3.0,5.0,51,0.00,,,0.00,meteohub,2013-07-01 07:57:00,
2013-07-01 01:02:00,76.3,56.8,29.96,SE,135,2.0,5.0,51,0.00,,,0.00,meteohub,2013-07-01 08:02:00,
2013-07-01 01:07:00,76.1,56.7,29.96,West,270,4.0,5.0,51,0.00,,,0.00,meteohub,2013-07-01 08:07:00,
2013-07-01 01:12:00,75.9,56.5,29.96,NE,45,3.0,5.0,51,0.00,,,0.00,meteohub,2013-07-01 08:12:00,
2013-07-01 01:17:00,75.9,56.5,29.96,NW,315,2.0,4.0,51,0.00,,,0.00,meteohub,2013-07-01 08:17:00,
2013-07-01 01:22:00,75.7,56.3,29.96,SE,135,3.0,6.0,51,0.00,,,0.00,meteohub,2013-07-01 08:22:00,
2013-07-01 01:27:00,75.4,56.5,29.97,West,270,2.0,6.0,52,0.00,,,0.00,meteohub,2013-07-01 08:27:00,
2013-07-01 01:32:00,75.0,56.7,29.96,SE,135,1.0,6.0,53,0.00,,,0.00,meteohub,2013-07-01 08:32:00,
2013-07-01 01:37:00,74.7,56.5,29.96,West,270,2.0,4.0,53,0.00,,,0.00,meteohub,2013-07-01 08:37:00,
2013-07-01 01:43:00,74.3,56.1,29.96,South,180,2.0,4.0,53,0.00,,,0.00,meteohub,2013-07-01 08:43:00,
2013-07-01 01:49:00,74.1,55.4,29.96,South,180,4.0,4.0,52,0.00,,,0.00,meteohub,2013-07-01 08:49:00,
2013-07-01 01:55:00,74.1,55.4,29.96,South,180,4.0,4.0,52,0.00,,,0.00,meteohub,2013-07-01 08:55:00,
2013-07-01 02:01:00,74.1,55.4,29.95,NW,315,2.0,4.0,52,0.00,,,0.00,meteohub,2013-07-01 09:01:00,
2013-07-01 02:07:00,74.1,55.4,29.96,SW,225,2.0,4.0,52,0.00,,,0.00,meteohub,2013-07-01 09:07:00,
2013-07-01 02:12:00,73.8,55.0,29.96,West,270,3.0,4.0,52,0.00,,,0.00,meteohub,2013-07-01 09:12:00,
2013-07-01 02:17:00,73.6,54.9,29.97,South,180,2.0,3.0,52,0.00,,,0.00,meteohub,2013-07-01 09:17:00,
2013-07-01 02:22:00,73.4,54.7,29.97,West,270,1.0,3.0,52,0.00,,,0.00,meteohub,2013-07-01 09:22:00,
2013-07-01 02:27:00,73.2,54.5,29.96,East,90,2.0,3.0,52,0.00,,,0.00,meteohub,2013-07-01 09:27:00,
2013-07-01 02:32:00,73.2,54.5,29.97,South,180,2.0,3.0,52,0.00,,,0.00,meteohub,2013-07-01 09:32:00,
2013-07-01 02:37:00,73.0,54.9,29.98,South,180,2.0,3.0,53,0.00,,,0.00,meteohub,2013-07-01 09:37:00,
2013-07-01 02:42:00,73.0,55.4,29.98,SSW,203,4.0,4.0,54,0.00,,,0.00,meteohub,2013-07-01 09:42:00,
2013-07-01 02:47:00,73.2,55.0,29.98,South,180,2.0,4.0,53,0.00,,,0.00,meteohub,2013-07-01 09:47:00,
2013-07-01 02:52:00,73.6,55.4,29.98,West,270,5.0,5.0,53,0.00,,,0.00,meteohub,2013-07-01 09:52:00,
2013-07-01 02:57:00,73.9,55.8,29.97,North,0,2.0,5.0,53,0.00,,,0.00,meteohub,2013-07-01 09:57:00,
2013-07-01 03:02:00,74.3,55.6,29.96,NW,315,6.0,6.0,52,0.00,,,0.00,meteohub,2013-07-01 10:02:00,
2013-07-01 03:07:00,74.7,55.9,29.96,NW,315,2.0,7.0,52,0.00,,,0.00,meteohub,2013-07-01 10:07:00,
2013-07-01 03:12:00,74.7,55.9,29.96,NW,315,2.0,7.0,52,0.00,,,0.00,meteohub,2013-07-01 10:12:00,
2013-07-01 03:17:00,74.5,55.8,29.97,NW,315,2.0,6.0,52,0.00,,,0.00,meteohub,2013-07-01 10:17:00,
2013-07-01 03:22:00,74.3,55.6,29.97,North,0,2.0,5.0,52,0.00,,,0.00,meteohub,2013-07-01 10:22:00,
2013-07-01 03:27:00,74.3,55.6,29.96,North,0,2.0,4.0,52,0.00,,,0.00,meteohub,2013-07-01 10:27:00,
2013-07-01 03:32:00,73.9,55.2,29.97,South,180,2.0,4.0,52,0.00,,,0.00,meteohub,2013-07-01 10:32:00,
2013-07-01 03:37:00,73.8,55.0,29.98,South,180,1.0,2.0,52,0.00,,,0.00,meteohub,2013-07-01 10:37:00,
2013-07-01 03:42:00,73.6,55.4,29.97,SW,225,2.0,2.0,53,0.00,,,0.00,meteohub,2013-07-01 10:42:00,
2013-07-01 03:47:00,72.9,55.8,29.97,SW,225,2.0,2.0,55,0.00,,,0.00,meteohub,2013-07-01 10:47:00,
2013-07-01 03:52:00,72.0,55.9,29.97,SW,225,2.0,2.0,57,0.00,,,0.00,meteohub,2013-07-01 10:52:00,
2013-07-01 03:57:00,71.8,55.8,29.97,SW,225,2.0,2.0,57,0.00,,,0.00,meteohub,2013-07-01 10:57:00,
2013-07-01 04:02:00,71.4,56.3,29.97,SW,225,1.0,2.0,59,0.00,,,0.00,meteohub,2013-07-01 11:02:00,
2013-07-01 04:07:00,71.2,56.1,29.97,SSW,203,1.0,2.0,59,0.00,,,0.00,meteohub,2013-07-01 11:07:00,
2013-07-01 04:12:00,71.2,56.1,29.98,South,180,2.0,2.0,59,0.00,,,0.00,meteohub,2013-07-01 11:12:00,
2013-07-01 04:17:00,71.2,56.7,29.98,South,180,3.0,3.0,60,0.00,,,0.00,meteohub,2013-07-01 11:17:00,
2013-07-01 04:22:00,71.1,56.5,29.99,SE,135,2.0,3.0,60,0.00,,,0.00,meteohub,2013-07-01 11:22:00,
2013-07-01 04:27:00,70.9,56.3,29.99,South,180,2.0,4.0,60,0.00,,,0.00,meteohub,2013-07-01 11:27:00,
2013-07-01 04:32:00,71.1,56.5,29.99,NW,315,2.0,4.0,60,0.00,,,0.00,meteohub,2013-07-01 11:32:00,
2013-07-01 04:38:00,71.4,56.8,29.99,West,270,2.0,3.0,60,0.00,,,0.00,meteohub,2013-07-01 11:38:00,
2013-07-01 04:44:00,71.8,56.7,29.98,NE,45,1.0,3.0,59,0.00,,,0.00,meteohub,2013-07-01 11:44:00,
2013-07-01 04:50:00,71.6,56.5,29.98,West,270,1.0,3.0,59,0.00,,,0.00,meteohub,2013-07-01 11:50:00,
2013-07-01 04:56:00,71.1,56.8,29.98,NE,45,2.0,2.0,61,0.00,,,0.00,meteohub,2013-07-01 11:56:00,
2013-07-01 05:02:00,70.0,57.2,29.98,SE,135,1.0,2.0,64,0.00,,,0.00,meteohub,2013-07-01 12:02:00,
2013-07-01 05:07:00,68.5,57.6,29.99,West,270,1.0,2.0,68,0.00,,,0.00,meteohub,2013-07-01 12:07:00,
2013-07-01 05:12:00,67.3,57.9,29.99,NW,315,1.0,2.0,72,0.00,,,0.00,meteohub,2013-07-01 12:12:00,
2013-07-01 05:17:00,66.4,57.4,29.98,NW,315,0.0,2.0,73,0.00,,,0.00,meteohub,2013-07-01 12:17:00,
2013-07-01 05:22:00,65.7,57.9,29.99,NW,315,2.0,2.0,76,0.00,,,0.00,meteohub,2013-07-01 12:22:00,
2013-07-01 05:27:00,65.3,58.3,29.99,NW,315,2.0,2.0,78,0.00,,,0.00,meteohub,2013-07-01 12:27:00,
2013-07-01 05:32:00,65.7,57.9,29.98,East,90,1.0,3.0,76,0.00,,,0.00,meteohub,2013-07-01 12:32:00,
2013-07-01 05:37:00,65.7,58.3,29.98,East,90,2.0,3.0,77,0.00,,,0.00,meteohub,2013-07-01 12:37:00,
2013-07-01 05:42:00,65.1,58.1,29.98,North,0,2.0,3.0,78,0.00,,,0.00,meteohub,2013-07-01 12:42:00,
2013-07-01 05:47:00,64.9,58.3,29.99,East,90,1.0,2.0,79,0.00,,,0.00,meteohub,2013-07-01 12:47:00,
2013-07-01 05:52:00,64.9,58.3,29.99,SW,225,2.0,2.0,79,0.00,,,0.00,meteohub,2013-07-01 12:52:00,
2013-07-01 05:57:00,65.8,58.8,29.99,NW,315,2.0,2.0,78,0.00,,,0.00,meteohub,2013-07-01 12:57:00,
2013-07-01 06:02:00,66.7,58.6,29.99,SW,225,2.0,2.0,75,0.00,,,0.00,meteohub,2013-07-01 13:02:00,
2013-07-01 06:07:00,67.5,58.8,29.99,South,180,2.0,2.0,74,0.00,,,0.00,meteohub,2013-07-01 13:07:00,
2013-07-01 06:12:00,67.8,59.2,29.99,South,180,1.0,2.0,74,0.00,,,0.00,meteohub,2013-07-01 13:12:00,
2013-07-01 06:17:00,68.2,59.2,29.99,South,180,1.0,2.0,73,0.00,,,0.00,meteohub,2013-07-01 13:17:00,
2013-07-01 06:22:00,68.7,59.4,29.99,SW,225,1.0,2.0,72,0.00,,,0.00,meteohub,2013-07-01 13:22:00,
2013-07-01 06:27:00,69.1,59.4,29.99,East,90,1.0,1.0,71,0.00,,,0.00,meteohub,2013-07-01 13:27:00,
2013-07-01 06:32:00,69.8,59.2,29.99,NE,45,1.0,1.0,69,0.00,,,0.00,meteohub,2013-07-01 13:32:00,
2013-07-01 06:37:00,70.2,58.6,29.99,NE,45,1.0,2.0,67,0.00,,,0.00,meteohub,2013-07-01 13:37:00,
2013-07-01 06:42:00,70.5,59.0,29.99,East,90,1.0,2.0,67,0.00,,,0.00,meteohub,2013-07-01 13:42:00,
2013-07-01 06:47:00,71.2,59.4,29.99,West,270,1.0,2.0,66,0.00,,,0.00,meteohub,2013-07-01 13:47:00,
2013-07-01 06:52:00,71.8,58.5,29.99,North,0,0.0,2.0,63,0.00,,,0.00,meteohub,2013-07-01 13:52:00,
2013-07-01 06:57:00,72.1,58.8,29.99,SW,225,1.0,2.0,63,0.00,,,0.00,meteohub,2013-07-01 13:57:00,
2013-07-01 07:02:00,72.7,58.8,29.99,NW,315,0.0,2.0,62,0.00,,,0.00,meteohub,2013-07-01 14:02:00,
2013-07-01 07:07:00,73.0,58.8,29.99,NW,315,2.0,2.0,61,0.00,,,0.00,meteohub,2013-07-01 14:07:00,
2013-07-01 07:12:00,73.2,58.5,29.99,South,180,2.0,2.0,60,0.00,,,0.00,meteohub,2013-07-01 14:12:00,
2013-07-01 07:17:00,73.4,58.6,29.99,West,270,0.0,2.0,60,0.00,,,0.00,meteohub,2013-07-01 14:17:00,
2013-07-01 07:22:00,73.6,58.8,29.99,SW,225,1.0,2.0,60,0.00,,,0.00,meteohub,2013-07-01 14:22:00,
2013-07-01 07:27:00,73.8,59.0,29.99,West,270,1.0,2.0,60,0.00,,,0.00,meteohub,2013-07-01 14:27:00,
2013-07-01 07:32:00,73.9,58.6,29.99,North,0,1.0,2.0,59,0.00,,,0.00,meteohub,2013-07-01 14:32:00,
2013-07-01 07:37:00,74.3,59.0,29.99,NW,315,1.0,2.0,59,0.00,,,0.00,meteohub,2013-07-01 14:37:00,
2013-07-01 07:42:00,74.8,58.6,29.99,SW,225,2.0,3.0,57,0.00,,,0.00,meteohub,2013-07-01 14:42:00,
2013-07-01 07:47:00,75.2,57.9,30.00,WNW,293,3.0,3.0,55,0.00,,,0.00,meteohub,2013-07-01 14:47:00,
2013-07-01 07:52:00,75.6,58.3,30.00,NW,315,3.0,3.0,55,0.00,,,0.00,meteohub,2013-07-01 14:52:00,
2013-07-01 07:57:00,76.1,58.8,30.00,SW,225,3.0,3.0,55,0.00,,,0.00,meteohub,2013-07-01 14:57:00,
2013-07-01 08:02:00,76.3,59.0,29.99,SE,135,2.0,4.0,55,0.00,,,0.00,meteohub,2013-07-01 15:02:00,
2013-07-01 08:07:00,76.8,58.5,30.00,WSW,248,4.0,4.0,53,0.00,,,0.00,meteohub,2013-07-01 15:07:00,
2013-07-01 08:12:00,77.4,57.7,30.00,NW,315,4.0,4.0,51,0.00,,,0.00,meteohub,2013-07-01 15:12:00,
2013-07-01 08:17:00,77.5,57.4,30.00,South,180,2.0,5.0,50,0.00,,,0.00,meteohub,2013-07-01 15:17:00,
2013-07-01 08:22:00,77.7,58.1,30.00,West,270,4.0,5.0,51,0.00,,,0.00,meteohub,2013-07-01 15:22:00,
2013-07-01 08:27:00,77.9,57.2,30.00,West,270,4.0,5.0,49,0.00,,,0.00,meteohub,2013-07-01 15:27:00,
2013-07-01 08:32:00,78.1,57.9,30.00,North,0,5.0,5.0,50,0.00,,,0.00,meteohub,2013-07-01 15:32:00,
2013-07-01 08:37:00,78.4,58.8,30.01,South,180,2.0,5.0,51,0.00,,,0.00,meteohub,2013-07-01 15:37:00,
2013-07-01 08:42:00,78.8,58.6,30.00,West,270,2.0,5.0,50,0.00,,,0.00,meteohub,2013-07-01 15:42:00,
2013-07-01 08:47:00,79.2,58.3,30.00,SE,135,2.0,5.0,49,0.00,,,0.00,meteohub,2013-07-01 15:47:00,
2013-07-01 08:52:00,79.3,58.5,30.00,South,180,2.0,4.0,49,0.00,,,0.00,meteohub,2013-07-01 15:52:00,
2013-07-01 08:57:00,79.7,58.8,30.00,NW,315,4.0,4.0,49,0.00,,,0.00,meteohub,2013-07-01 15:57:00,
2013-07-01 09:02:00,79.9,58.5,30.00,SE,135,4.0,5.0,48,0.00,,,0.00,meteohub,2013-07-01 16:02:00,
2013-07-01 09:07:00,80.1,58.6,29.99,NE,45,3.0,5.0,48,0.00,,,0.00,meteohub,2013-07-01 16:07:00,
2013-07-01 09:12:00,80.4,59.0,30.00,North,0,3.0,5.0,48,0.00,,,0.00,meteohub,2013-07-01 16:12:00,
2013-07-01 09:17:00,80.8,58.6,30.00,West,270,5.0,5.0,47,0.00,,,0.00,meteohub,2013-07-01 16:17:00,
2013-07-01 09:22:00,81.1,57.7,30.00,NW,315,2.0,5.0,45,0.00,,,0.00,meteohub,2013-07-01 16:22:00,
2013-07-01 09:27:00,81.5,58.6,30.00,NW,315,4.0,5.0,46,0.00,,,0.00,meteohub,2013-07-01 16:27:00,
2013-07-01 09:32:00,81.7,58.8,30.00,NW,315,4.0,5.0,46,0.00,,,0.00,meteohub,2013-07-01 16:32:00,
2013-07-01 09:37:00,81.9,59.0,30.00,SW,225,2.0,5.0,46,0.00,,,0.00,meteohub,2013-07-01 16:37:00,
2013-07-01 09:42:00,81.9,59.0,29.99,SW,225,3.0,51.0,46,0.00,,,0.00,meteohub,2013-07-01 16:42:00,
2013-07-01 09:47:00,82.0,59.2,30.00,NW,315,3.0,51.0,46,0.00,,,0.00,meteohub,2013-07-01 16:47:00,
2013-07-01 09:52:00,82.4,59.0,30.00,South,180,2.0,51.0,45,0.00,,,0.00,meteohub,2013-07-01 16:52:00,
2013-07-01 09:58:00,82.9,58.8,30.00,North,0,3.0,6.0,44,0.00,,,0.00,meteohub,2013-07-01 16:58:00,
2013-07-01 10:04:00,83.8,60.3,30.00,WNW,293,2.0,6.0,45,0.00,,,0.00,meteohub,2013-07-01 17:04:00,
2013-07-01 10:10:00,84.4,58.8,30.00,SW,225,3.0,4.0,42,0.00,,,0.00,meteohub,2013-07-01 17:10:00,
2013-07-01 10:16:00,85.3,59.0,30.00,North,0,2.0,5.0,41,0.00,,,0.00,meteohub,2013-07-01 17:16:00,
2013-07-01 10:22:00,85.5,59.7,30.00,West,270,2.0,6.0,42,0.00,,,0.00,meteohub,2013-07-01 17:22:00,
2013-07-01 10:27:00,86.0,59.5,30.00,North,0,2.0,6.0,41,0.00,,,0.00,meteohub,2013-07-01 17:27:00,
2013-07-01 10:32:00,85.8,59.4,30.00,NE,45,4.0,5.0,41,0.00,,,0.00,meteohub,2013-07-01 17:32:00,
2013-07-01 10:37:00,86.4,59.2,30.00,NW,315,6.0,6.0,40,0.00,,,0.00,meteohub,2013-07-01 17:37:00,
2013-07-01 10:42:00,86.4,59.2,30.00,SW,225,5.0,6.0,40,0.00,,,0.00,meteohub,2013-07-01 17:42:00,
2013-07-01 10:47:00,86.4,59.2,30.00,SE,135,2.0,8.0,40,0.00,,,0.00,meteohub,2013-07-01 17:47:00,
2013-07-01 10:52:00,86.5,59.4,30.00,SW,225,3.0,8.0,40,0.00,,,0.00,meteohub,2013-07-01 17:52:00,
2013-07-01 10:57:00,87.6,59.5,30.00,North,0,5.0,8.0,39,0.00,,,0.00,meteohub,2013-07-01 17:57:00,
2013-07-01 11:02:00,87.6,60.3,30.00,West,270,4.0,8.0,40,0.00,,,0.00,meteohub,2013-07-01 18:02:00,
2013-07-01 11:07:00,88.3,59.5,30.00,East,90,3.0,8.0,38,0.00,,,0.00,meteohub,2013-07-01 18:07:00,
2013-07-01 11:12:00,88.7,58.3,30.00,WNW,293,3.0,8.0,36,0.00,,,0.00,meteohub,2013-07-01 18:12:00,
2013-07-01 11:17:00,88.5,59.0,29.99,North,0,3.0,8.0,37,0.00,,,0.00,meteohub,2013-07-01 18:17:00,
2013-07-01 11:22:00,89.1,60.1,29.99,NW,315,5.0,8.0,38,0.00,,,0.00,meteohub,2013-07-01 18:22:00,
2013-07-01 11:27:00,89.4,59.0,29.99,North,0,4.0,5.0,36,0.00,,,0.00,meteohub,2013-07-01 18:27:00,
2013-07-01 11:32:00,90.1,57.2,30.00,NE,45,5.0,5.0,33,0.00,,,0.00,meteohub,2013-07-01 18:32:00,
2013-07-01 11:37:00,90.7,58.5,29.99,South,180,6.0,6.0,34,0.00,,,0.00,meteohub,2013-07-01 18:37:00,
2013-07-01 11:42:00,90.5,56.7,29.99,NE,45,5.0,6.0,32,0.00,,,0.00,meteohub,2013-07-01 18:42:00,
2013-07-01 11:47:00,90.9,57.7,29.99,West,270,4.0,6.0,33,0.00,,,0.00,meteohub,2013-07-01 18:47:00,
2013-07-01 11:52:00,91.4,59.9,29.99,East,90,3.0,6.0,35,0.00,,,0.00,meteohub,2013-07-01 18:52:00,
2013-07-01 11:57:00,91.9,59.5,29.99,SW,225,2.0,5.0,34,0.00,,,0.00,meteohub,2013-07-01 18:57:00,
2013-07-01 12:02:00,92.5,60.1,29.99,North,0,8.0,8.0,34,0.00,,,0.00,meteohub,2013-07-01 19:02:00,
2013-07-01 12:07:00,92.7,60.3,29.99,North,0,4.0,8.0,34,0.00,,,0.00,meteohub,2013-07-01 19:07:00,
2013-07-01 12:12:00,92.7,60.3,29.99,NW,315,4.0,8.0,34,0.00,,,0.00,meteohub,2013-07-01 19:12:00,
2013-07-01 12:17:00,92.5,59.2,29.99,East,90,3.0,8.0,33,0.00,,,0.00,meteohub,2013-07-01 19:17:00,
2013-07-01 12:22:00,92.7,59.4,29.99,South,180,2.0,5.0,33,0.00,,,0.00,meteohub,2013-07-01 19:22:00,
2013-07-01 12:27:00,93.0,59.7,29.99,NE,45,8.0,8.0,33,0.00,,,0.00,meteohub,2013-07-01 19:27:00,
2013-07-01 12:32:00,93.2,59.0,29.99,North,0,4.0,8.0,32,0.00,,,0.00,meteohub,2013-07-01 19:32:00,
2013-07-01 12:37:00,93.9,59.5,29.99,North,0,4.0,8.0,32,0.00,,,0.00,meteohub,2013-07-01 19:37:00,
2013-07-01 12:42:00,94.1,58.8,29.99,North,0,4.0,8.0,31,0.00,,,0.00,meteohub,2013-07-01 19:42:00,
2013-07-01 12:47:00,94.1,58.8,29.99,North,0,2.0,8.0,31,0.00,,,0.00,meteohub,2013-07-01 19:47:00,
2013-07-01 12:52:00,94.8,60.4,30.00,North,0,5.0,8.0,32,0.00,,,0.00,meteohub,2013-07-01 19:52:00,
2013-07-01 12:57:00,95.0,58.6,29.99,East,90,4.0,7.0,30,0.00,,,0.00,meteohub,2013-07-01 19:57:00,
2013-07-01 13:02:00,95.2,59.7,29.99,South,180,2.0,7.0,31,0.00,,,0.00,meteohub,2013-07-01 20:02:00,
2013-07-01 13:07:00,95.0,57.7,30.00,East,90,5.0,7.0,29,0.00,,,0.00,meteohub,2013-07-01 20:07:00,
2013-07-01 13:10:00,95.2,57.9,30.00,NE,45,4.0,7.0,29,0.00,,,0.00,meteohub,2013-07-01 20:10:00,
2013-07-01 13:16:00,95.5,59.2,29.99,NE,45,2.0,6.0,30,0.00,,,0.00,meteohub,2013-07-01 20:16:00,
2013-07-01 13:22:00,95.5,56.3,29.99,SW,225,3.0,6.0,27,0.00,,,0.00,meteohub,2013-07-01 20:22:00,
2013-07-01 13:27:00,95.2,58.8,29.99,NW,315,4.0,6.0,30,0.00,,,0.00,meteohub,2013-07-01 20:27:00,
2013-07-01 13:32:00,94.8,59.5,29.99,NE,45,4.0,7.0,31,0.00,,,0.00,meteohub,2013-07-01 20:32:00,
2013-07-01 13:38:00,95.7,59.4,29.99,SW,225,4.0,7.0,30,0.00,,,0.00,meteohub,2013-07-01 20:38:00,
2013-07-01 13:44:00,95.4,59.0,29.99,NE,45,3.0,7.0,30,0.00,,,0.00,meteohub,2013-07-01 20:44:00,
2013-07-01 13:50:00,96.1,59.5,29.99,NW,315,4.0,9.0,30,0.00,,,0.00,meteohub,2013-07-01 20:50:00,
2013-07-01 13:56:00,96.3,59.7,29.99,South,180,3.0,9.0,30,0.00,,,0.00,meteohub,2013-07-01 20:56:00,
2013-07-01 14:02:00,96.4,59.9,29.99,NW,315,6.0,8.0,30,0.00,,,0.00,meteohub,2013-07-01 21:02:00,
2013-07-01 14:07:00,96.3,58.8,29.99,SW,225,4.0,7.0,29,0.00,,,0.00,meteohub,2013-07-01 21:07:00,
2013-07-01 14:12:00,97.0,57.4,29.99,NW,315,6.0,7.0,27,0.00,,,0.00,meteohub,2013-07-01 21:12:00,
2013-07-01 14:17:00,97.0,59.4,29.99,NE,45,6.0,7.0,29,0.00,,,0.00,meteohub,2013-07-01 21:17:00,
2013-07-01 14:22:00,97.0,56.5,29.98,SE,135,2.0,7.0,26,0.00,,,0.00,meteohub,2013-07-01 21:22:00,
2013-07-01 14:27:00,96.6,58.1,29.99,NW,315,4.0,8.0,28,0.00,,,0.00,meteohub,2013-07-01 21:27:00,
2013-07-01 14:32:00,95.7,58.5,29.99,NE,45,8.0,8.0,29,0.00,,,0.00,meteohub,2013-07-01 21:32:00,
2013-07-01 14:37:00,95.2,57.0,29.99,NE,45,2.0,8.0,28,0.00,,,0.00,meteohub,2013-07-01 21:37:00,
2013-07-01 14:42:00,95.2,57.9,29.99,NE,45,4.0,8.0,29,0.00,,,0.00,meteohub,2013-07-01 21:42:00,
2013-07-01 14:47:00,95.2,57.9,29.99,WNW,293,5.0,8.0,29,0.00,,,0.00,meteohub,2013-07-01 21:47:00,
2013-07-01 14:52:00,95.2,58.8,29.99,SE,135,2.0,8.0,30,0.00,,,0.00,meteohub,2013-07-01 21:52:00,
2013-07-01 14:57:00,95.2,58.8,29.99,NW,315,10.0,10.0,30,0.00,,,0.00,meteohub,2013-07-01 21:57:00,
2013-07-01 15:02:00,96.1,57.7,29.99,NNE,23,6.0,10.0,28,0.00,,,0.00,meteohub,2013-07-01 22:02:00,
2013-07-01 15:07:00,97.3,57.7,29.98,NW,315,6.0,10.0,27,0.00,,,0.00,meteohub,2013-07-01 22:07:00,
2013-07-01 15:12:00,97.7,57.0,29.99,WSW,248,2.0,11.0,26,0.00,,,0.00,meteohub,2013-07-01 22:12:00,
2013-07-01 15:17:00,98.2,55.2,29.99,North,0,10.0,11.0,24,0.00,,,0.00,meteohub,2013-07-01 22:17:00,
2013-07-01 15:22:00,98.2,55.2,29.99,NW,315,12.0,12.0,24,0.00,,,0.00,meteohub,2013-07-01 22:22:00,
2013-07-01 15:27:00,98.2,56.3,29.98,NE,45,4.0,12.0,25,0.00,,,0.00,meteohub,2013-07-01 22:27:00,
2013-07-01 15:32:00,98.6,55.6,29.98,NW,315,6.0,13.0,24,0.00,,,0.00,meteohub,2013-07-01 22:32:00,
2013-07-01 15:37:00,99.3,58.5,29.98,North,0,7.0,13.0,26,0.00,,,0.00,meteohub,2013-07-01 22:37:00,
2013-07-01 15:42:00,99.9,54.1,29.98,NW,315,5.0,13.0,22,0.00,,,0.00,meteohub,2013-07-01 22:42:00,
2013-07-01 15:47:00,99.9,54.1,29.98,NW,315,4.0,10.0,22,0.00,,,0.00,meteohub,2013-07-01 22:47:00,
2013-07-01 15:52:00,100.4,53.4,29.98,NE,45,5.0,10.0,21,0.00,,,0.00,meteohub,2013-07-01 22:52:00,
2013-07-01 15:57:00,99.9,52.9,29.97,North,0,4.0,10.0,21,0.00,,,0.00,meteohub,2013-07-01 22:57:00,
2013-07-01 16:02:00,99.9,52.9,29.97,North,0,9.0,9.0,21,0.00,,,0.00,meteohub,2013-07-01 23:02:00,
2013-07-01 16:07:00,99.9,52.9,29.97,NE,45,13.0,13.0,21,0.00,,,0.00,meteohub,2013-07-01 23:07:00,
2013-07-01 16:12:00,99.1,52.3,29.97,NE,45,12.0,13.0,21,0.00,,,0.00,meteohub,2013-07-01 23:12:00,
2013-07-01 16:17:00,98.8,53.2,29.98,North,0,11.0,13.0,22,0.00,,,0.00,meteohub,2013-07-01 23:17:00,
2013-07-01 16:22:00,98.4,54.3,29.98,North,0,4.0,13.0,23,0.00,,,0.00,meteohub,2013-07-01 23:22:00,
2013-07-01 16:27:00,98.4,54.3,29.97,SW,225,10.0,12.0,23,0.00,,,0.00,meteohub,2013-07-01 23:27:00,
2013-07-01 16:32:00,98.6,53.2,29.97,North,0,10.0,11.0,22,0.00,,,0.00,meteohub,2013-07-01 23:32:00,
2013-07-01 16:37:00,98.8,54.5,29.97,NE,45,7.0,11.0,23,0.00,,,0.00,meteohub,2013-07-01 23:37:00,
2013-07-01 16:42:00,99.0,53.4,29.97,West,270,6.0,11.0,22,0.00,,,0.00,meteohub,2013-07-01 23:42:00,
2013-07-01 16:47:00,99.1,52.3,29.97,NW,315,8.0,12.0,21,0.00,,,0.00,meteohub,2013-07-01 23:47:00,
2013-07-01 16:53:00,99.0,53.4,29.97,NE,45,6.0,12.0,22,0.00,,,0.00,meteohub,2013-07-01 23:53:00,
2013-07-01 16:59:00,99.1,53.6,29.97,SW,225,4.0,12.0,22,0.00,,,0.00,meteohub,2013-07-01 23:59:00,
2013-07-01 17:05:00,99.3,52.5,29.97,North,0,5.0,11.0,21,0.00,,,0.00,meteohub,2013-07-02 00:05:00,
2013-07-01 17:11:00,99.0,53.4,29.97,WSW,248,3.0,11.0,22,0.00,,,0.00,meteohub,2013-07-02 00:11:00,
2013-07-01 17:17:00,99.0,53.4,29.96,North,0,8.0,9.0,22,0.00,,,0.00,meteohub,2013-07-02 00:17:00,
2013-07-01 17:22:00,98.4,54.3,29.96,North,0,8.0,11.0,23,0.00,,,0.00,meteohub,2013-07-02 00:22:00,
2013-07-01 17:27:00,98.2,54.1,29.96,South,180,6.0,11.0,23,0.00,,,0.00,meteohub,2013-07-02 00:27:00,
2013-07-01 17:32:00,98.2,54.1,29.97,NE,45,5.0,12.0,23,0.00,,,0.00,meteohub,2013-07-02 00:32:00,
2013-07-01 17:37:00,98.2,55.2,29.96,NE,45,6.0,12.0,24,0.00,,,0.00,meteohub,2013-07-02 00:37:00,
2013-07-01 17:42:00,98.4,54.3,29.97,North,0,4.0,12.0,23,0.00,,,0.00,meteohub,2013-07-02 00:42:00,
2013-07-01 17:47:00,98.2,54.1,29.97,North,0,8.0,10.0,23,0.00,,,0.00,meteohub,2013-07-02 00:47:00,
2013-07-01 17:52:00,97.9,53.8,29.96,NW,315,7.0,13.0,23,0.00,,,0.00,meteohub,2013-07-02 00:52:00,
2013-07-01 17:57:00,97.7,52.3,29.96,North,0,7.0,13.0,22,0.00,,,0.00,meteohub,2013-07-02 00:57:00,
2013-07-01 18:02:00,97.5,52.3,29.96,North,0,12.0,13.0,22,0.00,,,0.00,meteohub,2013-07-02 01:02:00,
2013-07-01 18:07:00,97.3,52.2,29.96,NE,45,9.0,12.0,22,0.00,,,0.00,meteohub,2013-07-02 01:07:00,
2013-07-01 18:12:00,97.0,51.8,29.96,NE,45,7.0,12.0,22,0.00,,,0.00,meteohub,2013-07-02 01:12:00,
2013-07-01 18:18:00,96.8,51.6,29.96,North,0,11.0,12.0,22,0.00,,,0.00,meteohub,2013-07-02 01:18:00,
2013-07-01 18:24:00,96.8,52.9,29.96,North,0,3.0,14.0,23,0.00,,,0.00,meteohub,2013-07-02 01:24:00,
2013-07-01 18:30:00,96.8,51.6,29.96,North,0,6.0,12.0,22,0.00,,,0.00,meteohub,2013-07-02 01:30:00,
2013-07-01 18:36:00,96.4,53.8,29.97,NW,315,11.0,11.0,24,0.00,,,0.00,meteohub,2013-07-02 01:36:00,
2013-07-01 18:42:00,95.9,61.3,29.97,NW,315,10.0,11.0,32,0.00,,,0.00,meteohub,2013-07-02 01:42:00,
2013-07-01 18:47:00,95.2,61.5,29.97,WNW,293,10.0,11.0,33,0.00,,,0.00,meteohub,2013-07-02 01:47:00,
2013-07-01 18:52:00,94.5,61.7,29.97,NE,45,6.0,11.0,34,0.00,,,0.00,meteohub,2013-07-02 01:52:00,
2013-07-01 18:57:00,93.9,61.3,29.97,NW,315,4.0,10.0,34,0.00,,,0.00,meteohub,2013-07-02 01:57:00,
2013-07-01 19:02:00,93.6,61.0,29.98,WNW,293,9.0,11.0,34,0.00,,,0.00,meteohub,2013-07-02 02:02:00,
2013-07-01 19:07:00,93.2,59.0,29.98,West,270,6.0,11.0,32,0.00,,,0.00,meteohub,2013-07-02 02:07:00,
2013-07-01 19:12:00,92.8,60.3,29.98,NW,315,4.0,11.0,34,0.00,,,0.00,meteohub,2013-07-02 02:12:00,
2013-07-01 19:17:00,92.7,59.4,29.98,North,0,8.0,10.0,33,0.00,,,0.00,meteohub,2013-07-02 02:17:00,
2013-07-01 19:22:00,92.5,59.2,29.98,NE,45,3.0,10.0,33,0.00,,,0.00,meteohub,2013-07-02 02:22:00,
2013-07-01 19:27:00,92.1,58.1,29.98,West,270,7.0,9.0,32,0.00,,,0.00,meteohub,2013-07-02 02:27:00,
2013-07-01 19:32:00,91.9,58.6,29.98,WSW,248,4.0,9.0,33,0.00,,,0.00,meteohub,2013-07-02 02:32:00,
2013-07-01 19:37:00,91.6,58.5,29.99,ENE,68,4.0,9.0,33,0.00,,,0.00,meteohub,2013-07-02 02:37:00,
2013-07-01 19:42:00,91.4,59.0,29.99,NW,315,4.0,9.0,34,0.00,,,0.00,meteohub,2013-07-02 02:42:00,
2013-07-01 19:47:00,90.9,58.6,29.98,West,270,3.0,9.0,34,0.00,,,0.00,meteohub,2013-07-02 02:47:00,
2013-07-01 19:52:00,90.5,59.9,29.98,West,270,3.0,7.0,36,0.00,,,0.00,meteohub,2013-07-02 02:52:00,
2013-07-01 19:57:00,90.3,60.4,29.98,NW,315,4.0,7.0,37,0.00,,,0.00,meteohub,2013-07-02 02:57:00,
2013-07-01 20:02:00,90.0,61.0,29.99,SSE,158,4.0,7.0,38,0.00,,,0.00,meteohub,2013-07-02 03:02:00,
2013-07-01 20:07:00,89.4,61.2,29.99,WNW,293,6.0,7.0,39,0.00,,,0.00,meteohub,2013-07-02 03:07:00,
2013-07-01 20:12:00,89.1,60.8,29.99,NE,45,5.0,9.0,39,0.00,,,0.00,meteohub,2013-07-02 03:12:00,
2013-07-01 20:17:00,88.7,60.6,29.99,SW,225,5.0,9.0,39,0.00,,,0.00,meteohub,2013-07-02 03:17:00,
2013-07-01 20:22:00,88.5,61.2,29.99,WNW,293,5.0,9.0,40,0.00,,,0.00,meteohub,2013-07-02 03:22:00,
2013-07-01 20:27:00,88.0,60.6,30.00,NE,45,2.0,8.0,40,0.00,,,0.00,meteohub,2013-07-02 03:27:00,
2013-07-01 20:32:00,87.8,60.4,30.00,North,0,5.0,8.0,40,0.00,,,0.00,meteohub,2013-07-02 03:32:00,
2013-07-01 20:37:00,87.4,61.5,30.00,NW,315,5.0,8.0,42,0.00,,,0.00,meteohub,2013-07-02 03:37:00,
2013-07-01 20:42:00,87.3,61.3,30.01,SE,135,4.0,7.0,42,0.00,,,0.00,meteohub,2013-07-02 03:42:00,
2013-07-01 20:47:00,86.7,60.8,30.01,North,0,8.0,8.0,42,0.00,,,0.00,meteohub,2013-07-02 03:47:00,
2013-07-01 20:52:00,86.5,61.3,30.01,SE,135,3.0,8.0,43,0.00,,,0.00,meteohub,2013-07-02 03:52:00,
2013-07-01 20:57:00,86.2,61.0,30.01,West,270,5.0,8.0,43,0.00,,,0.00,meteohub,2013-07-02 03:57:00,
2013-07-01 21:01:00,86.0,61.5,30.01,West,270,5.0,8.0,44,0.00,,,0.00,meteohub,2013-07-02 04:01:00,
2013-07-01 21:02:00,85.8,62.1,30.01,East,90,4.0,8.0,45,0.00,,,0.00,meteohub,2013-07-02 04:02:00,
2013-07-01 21:05:00,85.6,61.9,30.01,North,0,4.0,8.0,45,0.00,,,0.00,meteohub,2013-07-02 04:05:00,
2013-07-01 21:09:00,85.3,62.2,30.01,NW,315,2.0,8.0,46,0.00,,,0.00,meteohub,2013-07-02 04:09:00,
2013-07-01 21:15:00,84.4,61.9,30.02,North,0,2.0,5.0,47,0.00,,,0.00,meteohub,2013-07-02 04:15:00,
2013-07-01 21:21:00,84.0,62.8,30.02,SE,135,2.0,4.0,49,0.00,,,0.00,meteohub,2013-07-02 04:21:00,
2013-07-01 21:27:00,83.7,63.7,30.02,NE,45,4.0,5.0,51,0.00,,,0.00,meteohub,2013-07-02 04:27:00,
2013-07-01 21:32:00,83.5,63.5,30.03,SW,225,3.0,5.0,51,0.00,,,0.00,meteohub,2013-07-02 04:32:00,
2013-07-01 21:37:00,83.1,63.7,30.03,NW,315,2.0,5.0,52,0.00,,,0.00,meteohub,2013-07-02 04:37:00,
2013-07-01 21:42:00,82.9,63.5,30.04,North,0,5.0,5.0,52,0.00,,,0.00,meteohub,2013-07-02 04:42:00,
2013-07-01 21:47:00,82.6,63.1,30.04,NW,315,4.0,5.0,52,0.00,,,0.00,meteohub,2013-07-02 04:47:00,
2013-07-01 21:52:00,82.4,63.0,30.04,South,180,2.0,5.0,52,0.00,,,0.00,meteohub,2013-07-02 04:52:00,
2013-07-01 21:57:00,82.0,63.1,30.04,South,180,2.0,5.0,53,0.00,,,0.00,meteohub,2013-07-02 04:57:00,
2013-07-01 22:02:00,81.7,63.0,30.04,NW,315,2.0,4.0,53,0.00,,,0.00,meteohub,2013-07-02 05:02:00,
2013-07-01 22:07:00,81.3,63.1,30.05,North,0,2.0,4.0,54,0.00,,,0.00,meteohub,2013-07-02 05:07:00,
2013-07-01 22:12:00,81.1,63.0,30.05,NW,315,1.0,4.0,54,0.00,,,0.00,meteohub,2013-07-02 05:12:00,
2013-07-01 22:17:00,80.8,63.1,30.05,SW,225,2.0,4.0,55,0.00,,,0.00,meteohub,2013-07-02 05:17:00,
2013-07-01 22:22:00,80.2,63.7,30.05,NW,315,2.0,2.0,57,0.00,,,0.00,meteohub,2013-07-02 05:22:00,
2013-07-01 22:27:00,79.7,63.7,30.05,NW,315,1.0,2.0,58,0.00,,,0.00,meteohub,2013-07-02 05:27:00,
2013-07-01 22:32:00,79.2,63.1,30.05,NE,45,0.0,2.0,58,0.00,,,0.00,meteohub,2013-07-02 05:32:00,
2013-07-01 22:37:00,79.0,63.5,30.05,NE,45,0.0,2.0,59,0.00,,,0.00,meteohub,2013-07-02 05:37:00,
2013-07-01 22:42:00,78.6,63.5,30.05,NE,45,0.0,2.0,60,0.00,,,0.00,meteohub,2013-07-02 05:42:00,
2013-07-01 22:47:00,78.3,63.3,30.05,NE,45,0.0,2.0,60,0.00,,,0.00,meteohub,2013-07-02 05:47:00,
2013-07-01 22:52:00,77.9,63.0,30.06,West,270,1.0,1.0,60,0.00,,,0.00,meteohub,2013-07-02 05:52:00,
2013-07-01 22:57:00,77.7,63.1,30.05,West,270,1.0,1.0,61,0.00,,,0.00,meteohub,2013-07-02 05:57:00,
2013-07-01 23:02:00,77.5,63.0,30.06,SW,225,1.0,1.0,61,0.00,,,0.00,meteohub,2013-07-02 06:02:00,
2013-07-01 23:07:00,77.4,63.3,30.05,SW,225,1.0,1.0,62,0.00,,,0.00,meteohub,2013-07-02 06:07:00,
2013-07-01 23:12:00,77.2,63.1,30.05,SW,225,1.0,2.0,62,0.00,,,0.00,meteohub,2013-07-02 06:12:00,
2013-07-01 23:17:00,76.8,63.3,30.05,SW,225,1.0,2.0,63,0.00,,,0.00,meteohub,2013-07-02 06:17:00,
2013-07-01 23:22:00,76.5,63.3,30.06,SW,225,1.0,2.0,64,0.00,,,0.00,meteohub,2013-07-02 06:22:00,
2013-07-01 23:27:00,76.3,63.7,30.06,SW,225,1.0,2.0,65,0.00,,,0.00,meteohub,2013-07-02 06:27:00,
2013-07-01 23:32:00,75.9,63.7,30.06,SW,225,0.0,2.0,66,0.00,,,0.00,meteohub,2013-07-02 06:32:00,
2013-07-01 23:37:00,75.9,63.7,30.06,SW,225,0.0,2.0,66,0.00,,,0.00,meteohub,2013-07-02 06:37:00,
2013-07-01 23:42:00,75.4,63.1,30.06,SW,225,2.0,2.0,66,0.00,,,0.00,meteohub,2013-07-02 06:42:00,
2013-07-01 23:47:00,75.0,63.7,30.06,SW,225,1.0,2.0,68,0.00,,,0.00,meteohub,2013-07-02 06:47:00,
2013-07-01 23:52:00,74.8,64.0,30.06,SW,225,1.0,2.0,69,0.00,,,0.00,meteohub,2013-07-02 06:52:00,
2013-07-01 23:57:00,74.7,63.9,30.06,SW,225,2.0,2.0,69,0.00,,,0.00,meteohub,2013-07-02 06:57:00,